Home   Weather   Mannheim   Past weeks

Flag for Germany Past Weather in Mannheim, Baden-Württemberg, Germany — Yesterday and Last 2 Weeks

Now
63 °F

Sunny.


Feels Like: 63 °F
Forecast: 39 / 55 °F
Wind: 6 mph from Northeast

Location: Mannheim City

Current Time: Apr 24, 2017 at 7:19:48 pm

Latest Report: Apr 24, 2017 at 6:50 pm


Visibility: 10 mi

Pressure: 29.83 "Hg

Humidity: 30%

Dew Point: 30 °F

Location of MannheimLocation

Past Weather in Mannheim — Graph

°F

Mannheim Temperature Yesterday

Maximum temperature yesterday: 52 °F (at 4:20 pm)
Minimum temperature yesterday: 39 °F (at 7:20 am)
Average temperature yesterday: 48 °F

High & Low Weather Summary for the Past Weeks

 TemperatureHumidityPressure
High61 °F (Apr 21, 3:20 pm)100% (Apr 24, 5:20 am)30.60 "Hg (Apr 24, 5:20 am)
Low28 °F (Apr 20, 5:50 am)28% (Apr 21, 12:50 pm)29.86 "Hg (Apr 24, 5:50 pm)
Average48 °F50%30.34 "Hg
* Reported Apr 19 9:20 am — Apr 24 5:50 pm, Mannheim, Weather by CustomWeather, © 2017

Note: Actual official high and low records may vary slightly from our data, if they occured in-between our weather recording intervals... More about our weather records

Advertising

Mannheim Weather History for the Previous 24 Hours

Scroll right to see more
 ConditionsComfort  
Time TempWeatherWind HumidityBarometerVisibility
5:50 pm
Mon, Apr 24
61 °FPassing clouds.5 mph31%29.86 "HgN/A
5:20 pm61 °FSunny.2 mph31%29.89 "Hg10 mi
4:50 pm61 °FSunny.2 mph29%29.89 "Hg10 mi
4:20 pm61 °FSunny.3 mph31%29.92 "Hg10 mi
3:50 pm61 °FSunny.5 mph29%29.92 "Hg10 mi
3:20 pm59 °FPassing clouds.6 mph31%29.95 "HgN/A
2:50 pm59 °FSunny.7 mph31%29.98 "Hg10 mi
2:20 pm59 °FSunny.5 mph31%29.98 "Hg10 mi
1:50 pm59 °FSunny.6 mph29%30.01 "Hg10 mi
1:20 pm57 °FPassing clouds.7 mph29%30.01 "HgN/A
12:50 pm57 °FSunny.5 mph31%30.04 "Hg10 mi
12:20 pm55 °FSunny.3 mph33%30.04 "Hg10 mi
11:50 am54 °FSunny.3 mph35%30.07 "Hg10 mi
11:20 am52 °FSunny.5 mph38%30.07 "Hg10 mi
10:50 am52 °FPassing clouds.6 mph38%30.07 "HgN/A
10:20 am50 °FPassing clouds.5 mph43%30.09 "HgN/A
9:50 am48 °FPassing clouds.5 mph50%30.09 "HgN/A
9:20 am46 °FSunny.2 mph57%30.09 "Hg10 mi
8:50 am45 °FSunny.2 mph66%30.12 "Hg10 mi
8:20 am41 °FSunny.1 mph76%30.12 "Hg10 mi
7:50 am39 °FSunny.1 mph81%30.12 "Hg10 mi
7:20 am36 °FSunny.No wind93%30.12 "Hg10 mi
6:50 am32 °FSunny.1 mph93%30.12 "Hg10 mi
5:50 am32 °FClear.2 mph93%30.15 "Hg10 mi
5:20 am32 °FClear.1 mph100%30.15 "Hg10 mi
7:50 pm
Sun, Apr 23
50 °FSunny.7 mph40%30.24 "Hg10 mi
7:20 pm52 °FPassing clouds.9 mph38%30.24 "HgN/A
Weather by CustomWeather, © 2017

See weather overviewHow to use our weather pages